FW2068 Weather Reports


Display with metric or nautical units.
time (UTC)temp
F
wind
direction
speed
MPH
gust
MPH
rain 1hr
in
rain 24hr
in
rain mn
in
humidity
%
barometer
mb
20260906011042 86 113 3.0 8.0 0.00 0.00 0.00 68 1011.3
20260906010538 86 143 8.0 11.0 0.00 0.00 0.00 67 1011.3
20260906010034 86 156 7.0 11.0 0.00 0.00 0.00 67 1011.1
20260906005533 86 112 5.0 13.0 0.00 0.00 0.00 67 1011.4
20260906005032 87 137 7.0 15.0 0.00 0.00 0.00 67 1011.3
20260906004532 87 151 8.0 13.0 0.00 0.00 0.00 66 1011.3
20260906004027 87 147 13.0 14.0 0.00 0.00 0.00 65 1011.5
20260906003522 87 149 10.0 14.0 0.00 0.00 0.00 65 1011.3
20260906003018 88 158 14.0 19.0 0.00 0.00 0.00 64 1011.5
20260906002513 88 147 10.0 19.0 0.00 0.00 0.00 63 1011.5
20260906002008 88 150 16.0 16.0 0.00 0.00 0.00 62 1011.5
20260906001503 88 133 13.0 19.0 0.00 0.00 0.00 61 1011.4
20260906000952 89 130 5.0 17.0 0.00 0.00 0.00 60 1011.3
20260906000448 89 143 14.0 22.0 0.00 0.00 0.00 59 1011.2
20260905235948 90 154 10.0 18.0 0.00 0.00 0.00 58 1011.3
20260905235442 92 148 11.0 17.0 0.00 0.00 0.00 55 1011.2
20260905234937 93 139 12.0 17.0 0.00 0.00 0.00 52 1011.1
20260905234433 94 123 4.0 11.0 0.00 0.00 0.00 51 1011.0
20260905233932 95 137 10.0 11.0 0.00 0.00 0.00 50 1011.0
20260905233427 95 127 6.0 12.0 0.00 0.00 0.00 50 1010.9
20260905232926 95 139 4.0 11.0 0.00 0.00 0.00 50 1010.9
20260905232423 96 99 4.0 14.0 0.00 0.00 0.00 49 1010.7
20260905231918 95 126 4.0 11.0 0.00 0.00 0.00 49 1010.8
20260905231414 97 139 9.0 10.0 0.00 0.00 0.00 49 1010.8
20260905230905 96 137 4.0 15.0 0.00 0.00 0.00 49 1010.7
20260905230402 97 148 9.0 13.0 0.00 0.00 0.00 48 1010.6
20260905225855 97 130 9.0 13.0 0.00 0.00 0.00 48 1010.8
20260905225351 98 152 6.0 12.0 0.00 0.00 0.00 49 1010.5
20260905224845 99 154 6.0 8.0 0.00 0.00 0.00 43 1010.6
20260905224341 99 132 3.0 5.0 0.00 0.00 0.00 43 1010.4
20260905223836 99 132 6.0 10.0 0.00 0.00 0.00 42 1010.3
20260905223334 99 123 2.0 8.0 0.00 0.00 0.00 43 1010.4
20260905222834 99 166 3.0 5.0 0.00 0.00 0.00 43 1010.6
20260905222332 98 169 2.0 4.0 0.00 0.00 0.00 45 1010.5
20260905221829 98 158 7.0 8.0 0.00 0.00 0.00 44 1010.3
20260905221325 100 264 2.0 4.0 0.00 0.00 0.00 42 1010.4
20260905220821 101 257 0.0 2.0 0.00 0.00 0.00 41 1010.3
20260905220317 101 286 3.0 4.0 0.00 0.00 0.00 42 1010.5
20260905215816 100 231 1.0 4.0 0.00 0.00 0.00 42 1010.7
20260905215312 100 188 2.0 4.0 0.00 0.00 0.00 42 1010.5
20260905214808 97 184 2.0 4.0 0.00 0.00 0.00 45 1010.6
20260905214303 97 178 0.0 3.0 0.00 0.00 0.00 46 1010.8
20260905213758 98 197 2.0 4.0 0.00 0.00 0.00 44 1011.0
20260905213255 98 167 2.0 5.0 0.00 0.00 0.00 46 1010.7
20260905212749 98 196 1.0 8.0 0.00 0.00 0.00 45 1010.7
20260905212244 97 155 2.0 3.0 0.00 0.00 0.00 46 1010.7
20260905211743 98 279 2.0 3.0 0.00 0.00 0.00 45 1010.9
20260905211239 99 133 2.0 2.0 0.00 0.00 0.00 44 1011.0
20260905210735 98 9 0.0 2.0 0.00 0.00 0.00 44 1011.4
20260905210234 98 168 2.0 2.0 0.00 0.00 0.00 45 1011.2
20260905205733 97 297 2.0 4.0 0.00 0.00 0.00 45 1011.2
20260905205228 96 222 0.0 4.0 0.00 0.00 0.00 46 1011.0
20260905204728 97 290 3.0 6.0 0.00 0.00 0.00 46 1011.4
20260905204223 99 339 0.0 2.0 0.00 0.00 0.00 44 1011.2
20260905203723 98 233 2.0 5.0 0.00 0.00 0.00 45 1011.3
20260905203219 101 277 1.0 2.0 0.00 0.00 0.00 45 1011.3
20260905202714 101 285 3.0 4.0 0.00 0.00 0.00 44 1011.6
20260905202210 100 276 2.0 3.0 0.00 0.00 0.00 44 1011.8
20260905201705 99 156 2.0 2.0 0.00 0.00 0.00 45 1011.7
20260905201204 96 249 1.0 4.0 0.00 0.00 0.00 47 1011.7
20260905200659 96 282 2.0 3.0 0.00 0.00 0.00 47 1011.7
20260905200155 97 291 1.0 2.0 0.00 0.00 0.00 47 1011.9
20260905195653 97 116 2.0 5.0 0.00 0.00 0.00 47 1011.9
20260905195148 96 320 0.0 2.0 0.00 0.00 0.00 46 1011.7
20260905194644 96 308 1.0 6.0 0.00 0.00 0.00 47 1011.9
20260905194143 96 315 2.0 6.0 0.00 0.00 0.00 46 1012.1
20260905193638 96 291 3.0 4.0 0.00 0.00 0.00 47 1012.1
20260905193133 97 101 2.0 3.0 0.00 0.00 0.00 46 1012.1
20260905192628 96 272 2.0 3.0 0.00 0.00 0.00 46 1012.4
20260905192125 97 278 8.0 9.0 0.00 0.00 0.00 46 1012.3
20260905191624 96 223 2.0 5.0 0.00 0.00 0.00 46 1012.3
20260905191122 97 197 3.0 8.0 0.00 0.00 0.00 46 1012.5
20260905190621 97 177 2.0 4.0 0.00 0.00 0.00 49 1012.5
20260905190120 97 188 5.0 7.0 0.00 0.00 0.00 47 1012.8
20260905185619 98 80 2.0 7.0 0.00 0.00 0.00 46 1012.7
20260905185114 98 120 3.0 4.0 0.00 0.00 0.00 46 1013.1
20260905184609 97 139 3.0 6.0 0.00 0.00 0.00 48 1013.1
20260905184108 96 179 5.0 5.0 0.00 0.00 0.00 50 1013.0
20260905183607 96 249 3.0 5.0 0.00 0.00 0.00 49 1013.2
20260905183102 97 189 3.0 7.0 0.00 0.00 0.00 48 1013.5
20260905182602 99 122 0.0 2.0 0.00 0.00 0.00 47 1013.4
20260905182056 96 314 0.0 3.0 0.00 0.00 0.00 51 1013.5
20260905181556 93 164 0.0 4.0 0.00 0.00 0.00 53 1013.7
20260905181055 94 164 6.0 6.0 0.00 0.00 0.00 52 1013.4
20260905180550 96 330 3.0 3.0 0.00 0.00 0.00 49 1013.7
20260905180046 95 156 8.0 9.0 0.00 0.00 0.00 52 1013.7
20260905175545 96 198 3.0 6.0 0.00 0.00 0.00 50 1014.0
20260905175041 95 155 5.0 8.0 0.00 0.00 0.00 52 1014.1
20260905174536 94 185 7.0 8.0 0.00 0.00 0.00 51 1013.9
20260905174031 95 149 2.0 8.0 0.00 0.00 0.00 51 1014.2
20260905173529 94 172 1.0 4.0 0.00 0.00 0.00 50 1014.0
20260905173029 95 189 4.0 7.0 0.00 0.00 0.00 50 1014.4
20260905172527 94 348 2.0 4.0 0.00 0.00 0.00 52 1014.3
20260905172023 94 159 4.0 9.0 0.00 0.00 0.00 55 1014.4
20260905171519 95 202 4.0 5.0 0.00 0.00 0.00 51 1014.6
20260905171015 96 211 2.0 5.0 0.00 0.00 0.00 51 1014.6
20260905170511 94 124 0.0 2.0 0.00 0.00 0.00 52 1014.6
20260905170006 95 143 0.0 1.0 0.00 0.00 0.00 52 1014.4
20260905165501 95 151 2.0 6.0 0.00 0.00 0.00 52 1014.6
20260905164955 94 142 2.0 4.0 0.00 0.00 0.00 52 1014.6
20260905164450 94 260 0.0 3.0 0.00 0.00 0.00 52 1014.8
20260905163945 93 255 0.0 5.0 0.00 0.00 0.00 54 1014.9
20260905163441 93 94 2.0 4.0 0.00 0.00 0.00 54 1015.0
20260905162937 91 142 0.0 4.0 0.00 0.00 0.00 57 1014.9
20260905162431 90 269 3.0 5.0 0.00 0.00 0.00 58 1014.8
20260905161927 91 232 2.0 6.0 0.00 0.00 0.00 56 1014.8
20260905161426 92 243 2.0 2.0 0.00 0.00 0.00 54 1014.9
20260905160924 90 272 4.0 4.0 0.00 0.00 0.00 55 1014.6
20260905160418 92 303 4.0 4.0 0.00 0.00 0.00 55 1014.8
20260905155912 92 48 0.0 1.0 0.00 0.00 0.00 56 1015.0
20260905155407 91 180 3.0 6.0 0.00 0.00 0.00 58 1014.8
20260905154905 90 182 3.0 5.0 0.00 0.00 0.00 61 1014.8
20260905154401 89 282 1.0 2.0 0.00 0.00 0.00 61 1014.8
20260905153856 90 279 3.0 6.0 0.00 0.00 0.00 62 1014.8
20260905153353 90 242 0.0 0.0 0.00 0.00 0.00 63 1014.9
20260905152852 89 258 0.0 5.0 0.00 0.00 0.00 63 1014.8
20260905152352 91 205 2.0 2.0 0.00 0.00 0.00 61 1014.8
20260905151847 89 225 3.0 4.0 0.00 0.00 0.00 63 1014.9
20260905151342 88 280 5.0 6.0 0.00 0.00 0.00 64 1014.8
20260905150837 87 246 0.0 5.0 0.00 0.00 0.00 65 1014.8
20260905150331 88 275 3.0 4.0 0.00 0.00 0.00 67 1014.5
20260905145828 87 176 2.0 5.0 0.00 0.00 0.00 67 1014.6
20260905145323 86 228 3.0 4.0 0.00 0.00 0.00 67 1014.6
20260905144822 87 199 4.0 5.0 0.00 0.00 0.00 66 1014.5
20260905144318 87 283 5.0 6.0 0.00 0.00 0.00 67 1014.7
20260905143816 87 189 3.0 4.0 0.00 0.00 0.00 67 1014.7
20260905143311 86 246 2.0 4.0 0.00 0.00 0.00 69 1014.5
20260905142810 86 205 2.0 5.0 0.00 0.00 0.00 68 1014.5
20260905142306 85 223 1.0 4.0 0.00 0.00 0.00 69 1014.5
20260905141759 84 266 2.0 6.0 0.00 0.00 0.00 70 1014.4
20260905141255 85 263 2.0 3.0 0.00 0.00 0.00 70 1014.7
20260905140750 84 235 2.0 3.0 0.00 0.00 0.00 71 1014.6
20260905140245 84 224 2.0 3.0 0.00 0.00 0.00 71 1014.5
20260905135744 85 170 0.0 2.0 0.00 0.00 0.00 71 1014.6
20260905135240 85 166 2.0 4.0 0.00 0.00 0.00 70 1014.7
20260905134739 85 142 2.0 2.0 0.00 0.00 0.00 70 1014.5
20260905134238 84 117 0.0 2.0 0.00 0.00 0.00 70 1014.6
20260905133733 83 147 0.0 3.0 0.00 0.00 0.00 72 1014.6
20260905133228 83 104 0.0 3.0 0.00 0.00 0.00 73 1014.6
20260905132727 82 151 4.0 4.0 0.00 0.00 0.00 73 1014.4
20260905132223 82 149 3.0 4.0 0.00 0.00 0.00 73 1014.4
20260905131718 82 92 1.0 3.0 0.00 0.00 0.00 73 1014.1
20260905131214 81 104 1.0 4.0 0.00 0.00 0.00 75 1014.1
20260905130714 80 116 3.0 4.0 0.00 0.00 0.00 77 1013.9
20260905130213 79 153 3.0 4.0 0.00 0.00 0.00 78 1013.7
20260905125708 79 148 3.0 4.0 0.00 0.00 0.00 79 1013.9
20260905125203 78 141 2.0 4.0 0.00 0.00 0.00 81 1013.7
20260905124659 78 141 0.0 2.0 0.00 0.00 0.00 80 1014.2
20260905124155 78 86 2.0 3.0 0.00 0.00 0.00 80 1014.2
20260905123650 78 83 3.0 3.0 0.00 0.00 0.00 79 1014.1
20260905123148 78 107 2.0 3.0 0.00 0.00 0.00 79 1013.9
20260905122647 78 107 1.0 2.0 0.00 0.00 0.00 79 1014.1
20260905122142 78 106 0.0 2.0 0.00 0.00 0.00 79 1014.1
20260905121636 77 113 0.0 1.0 0.00 0.00 0.00 80 1014.2
20260905121132 78 98 0.0 0.0 0.00 0.00 0.00 79 1014.0
20260905120631 78 69 1.0 1.0 0.00 0.00 0.00 79 1013.9
20260905120126 77 98 0.0 1.0 0.00 0.00 0.00 80 1013.7
20260905115625 77 104 0.0 0.0 0.00 0.00 0.00 80 1013.9
20260905115120 77 157 1.0 2.0 0.00 0.00 0.00 80 1013.6
20260905114620 77 144 1.0 2.0 0.00 0.00 0.00 80 1013.9
20260905114119 77 135 2.0 2.0 0.00 0.00 0.00 80 1013.5
20260905113614 78 156 2.0 2.0 0.00 0.00 0.00 78 1013.7
20260905113109 78 115 0.0 2.0 0.00 0.00 0.00 79 1013.9
20260905112603 78 160 0.0 2.0 0.00 0.00 0.00 78 1013.7
20260905112100 78 126 0.0 1.0 0.00 0.00 0.00 78 1013.9
20260905111554 78 107 1.0 2.0 0.00 0.00 0.00 78 1014.0
20260905111053 78 158 0.0 2.0 0.00 0.00 0.00 79 1013.6
20260905110552 78 144 1.0 2.0 0.00 0.00 0.00 78 1013.7
20260905110048 78 135 0.0 2.0 0.00 0.00 0.00 78 1013.7
20260905105542 78 142 0.0 1.0 0.00 0.00 0.00 78 1013.5
20260905105041 78 126 1.0 2.0 0.00 0.00 0.00 78 1013.6
20260905104537 79 116 0.0 1.0 0.00 0.00 0.00 77 1013.5
20260905104037 79 213 1.0 2.0 0.00 0.00 0.00 77 1013.4
20260905103532 79 358 0.0 0.0 0.00 0.00 0.00 76 1013.5
20260905103028 79 137 0.0 1.0 0.00 0.00 0.00 76 1013.4
20260905102524 79 164 0.0 2.0 0.00 0.00 0.00 76 1013.5
20260905102020 79 185 0.0 2.0 0.00 0.00 0.00 76 1013.5
20260905101518 79 160 1.0 2.0 0.00 0.00 0.00 75 1013.4
20260905101017 79 189 0.0 1.0 0.00 0.00 0.00 75 1013.6
20260905100514 80 231 1.0 2.0 0.00 0.00 0.00 75 1013.6
20260905100013 80 180 0.0 2.0 0.00 0.00 0.00 75 1013.4
20260905095508 80 147 0.0 2.0 0.00 0.00 0.00 75 1013.4
20260905095003 79 172 1.0 2.0 0.00 0.00 0.00 75 1013.4
20260905094458 79 160 0.0 1.0 0.00 0.00 0.00 76 1013.4
20260905093956 79 142 0.0 0.0 0.00 0.00 0.00 76 1013.3
20260905093452 79 129 0.0 0.0 0.00 0.00 0.00 75 1013.2
20260905092948 80 145 1.0 1.0 0.00 0.00 0.00 75 1013.5
20260905092443 80 145 1.0 2.0 0.00 0.00 0.00 75 1013.2
20260905091938 80 154 1.0 2.0 0.00 0.00 0.00 75 1013.2
20260905091432 80 142 0.0 2.0 0.00 0.00 0.00 74 1013.2
20260905090932 80 153 2.0 2.0 0.00 0.00 0.00 74 1013.1
20260905090427 80 150 1.0 2.0 0.00 0.00 0.00 74 1013.1
20260905085926 80 161 2.0 2.0 0.00 0.00 0.00 74 1013.1
20260905085426 80 158 2.0 2.0 0.00 0.00 0.00 73 1013.0
20260905084922 81 131 0.0 3.0 0.00 0.00 0.00 73 1013.2
20260905084421 81 126 0.0 3.0 0.00 0.00 0.00 73 1012.8
20260905083916 81 132 2.0 4.0 0.00 0.00 0.00 73 1013.0
20260905083412 81 134 2.0 3.0 0.00 0.00 0.00 73 1013.0
20260905082907 81 158 2.0 3.0 0.00 0.00 0.00 73 1013.0
20260905082403 81 162 2.0 2.0 0.00 0.00 0.00 73 1012.9
20260905081859 82 168 2.0 4.0 0.00 0.00 0.00 72 1012.9
20260905081359 81 171 2.0 2.0 0.00 0.00 0.00 73 1012.8
20260905080857 82 161 2.0 3.0 0.00 0.00 0.00 72 1012.8
20260905080352 82 182 2.0 3.0 0.00 0.00 0.00 71 1012.9
20260905075851 82 208 1.0 1.0 0.00 0.00 0.00 71 1012.9
20260905075351 82 217 0.0 2.0 0.00 0.00 0.00 71 1012.9
20260905074850 82 175 0.0 2.0 0.00 0.00 0.00 70 1012.9
20260905074346 82 211 2.0 4.0 0.00 0.00 0.00 71 1012.9
20260905073841 82 205 0.0 2.0 0.00 0.00 0.00 71 1013.0
20260905073336 82 164 1.0 3.0 0.00 0.00 0.00 71 1013.2
20260905072831 82 169 2.0 3.0 0.00 0.00 0.00 70 1013.3
20260905072326 82 163 2.0 2.0 0.00 0.00 0.00 70 1013.3
20260905071823 82 162 2.0 3.0 0.00 0.00 0.00 70 1013.4
20260905071319 82 161 0.0 3.0 0.00 0.00 0.00 70 1013.7
20260905070813 83 160 2.0 2.0 0.00 0.00 0.00 70 1013.5
20260905070310 83 180 1.0 3.0 0.00 0.00 0.00 69 1013.6
20260905065809 83 166 2.0 2.0 0.00 0.00 0.00 68 1013.6
20260905065306 83 180 2.0 2.0 0.00 0.00 0.00 68 1013.5
20260905064758 83 188 3.0 4.0 0.00 0.00 0.00 68 1013.7
20260905064253 83 183 1.0 3.0 0.00 0.00 0.00 68 1013.6
20260905063751 83 179 2.0 3.0 0.00 0.00 0.00 69 1013.5
20260905063248 83 166 2.0 3.0 0.00 0.00 0.00 68 1013.6
20260905062743 83 173 2.0 2.0 0.00 0.00 0.00 68 1013.6
20260905062243 84 178 2.0 4.0 0.00 0.00 0.00 68 1013.6
20260905061738 84 164 2.0 6.0 0.00 0.00 0.00 67 1013.5
20260905061232 84 167 2.0 5.0 0.00 0.00 0.00 67 1013.3
20260905060726 84 154 2.0 5.0 0.00 0.00 0.00 66 1013.6
20260905060224 84 154 1.0 6.0 0.00 0.00 0.00 66 1013.3
20260905055721 84 189 4.0 6.0 0.00 0.00 0.00 66 1013.5
20260905055217 84 160 4.0 4.0 0.00 0.00 0.00 66 1013.3
20260905054712 85 210 3.0 6.0 0.00 0.00 0.00 65 1013.3
20260905054209 84 188 4.0 6.0 0.00 0.00 0.00 66 1013.2
20260905053708 85 162 3.0 6.0 0.00 0.00 0.00 66 1012.9
20260905053203 85 175 5.0 6.0 0.00 0.00 0.00 65 1013.0
20260905052702 85 179 2.0 5.0 0.00 0.00 0.00 65 1013.1
20260905052157 85 189 5.0 5.0 0.00 0.00 0.00 65 1013.1
20260905051652 85 201 7.0 7.0 0.00 0.00 0.00 64 1013.0
20260905051149 85 176 3.0 4.0 0.00 0.00 0.00 64 1013.1
20260905050645 85 184 2.0 4.0 0.00 0.00 0.00 64 1013.0
20260905050142 85 203 3.0 6.0 0.00 0.00 0.00 65 1012.9
20260905045641 85 185 4.0 5.0 0.00 0.00 0.00 64 1013.0
20260905045136 86 176 3.0 6.0 0.00 0.00 0.00 64 1013.1
20260905044631 86 177 5.0 6.0 0.00 0.00 0.00 64 1013.2
20260905044126 86 208 2.0 5.0 0.00 0.00 0.00 64 1013.0
20260905043625 86 169 5.0 6.0 0.00 0.00 0.00 64 1013.0
20260905043120 86 180 5.0 6.0 0.00 0.00 0.00 64 1013.0
20260905042619 86 179 2.0 6.0 0.00 0.00 0.00 64 1013.0
20260905042114 86 170 4.0 5.0 0.00 0.00 0.00 64 1013.2
20260905041609 86 171 4.0 5.0 0.00 0.00 0.00 64 1013.1
20260905041104 86 157 5.0 9.0 0.00 0.00 0.00 63 1013.2
20260905040559 87 154 3.0 6.0 0.00 0.00 0.00 63 1013.1
20260905040057 87 165 5.0 7.0 0.00 0.00 0.00 62 1013.2
20260905035553 87 161 6.0 9.0 0.00 0.00 0.00 62 1013.2
20260905035050 87 166 7.0 8.0 0.00 0.00 0.00 61 1013.2
20260905034545 87 188 4.0 6.0 0.00 0.00 0.00 62 1013.2
20260905034044 87 159 4.0 6.0 0.00 0.00 0.00 61 1013.1
20260905033538 87 130 2.0 6.0 0.00 0.00 0.00 61 1013.3
20260905033034 87 158 6.0 7.0 0.00 0.00 0.00 60 1013.1
20260905032529 87 158 5.0 6.0 0.00 0.00 0.00 61 1013.3
20260905032024 87 145 4.0 5.0 0.00 0.00 0.00 61 1013.4
20260905031520 87 132 3.0 6.0 0.00 0.00 0.00 60 1013.2
20260905031019 88 141 4.0 6.0 0.00 0.00 0.00 60 1013.2
20260905030515 88 146 4.0 6.0 0.00 0.00 0.00 60 1013.0
20260905030014 88 149 3.0 5.0 0.00 0.00 0.00 59 1012.9
20260905025510 88 126 3.0 6.0 0.00 0.00 0.00 59 1013.1
20260905025006 88 145 4.0 6.0 0.00 0.00 0.00 59 1012.7
20260905024502 89 138 3.0 6.0 0.00 0.00 0.00 58 1012.8
20260905023956 89 150 6.0 6.0 0.00 0.00 0.00 57 1012.8
20260905023451 89 133 3.0 7.0 0.00 0.00 0.00 57 1012.8
20260905022950 89 138 4.0 5.0 0.00 0.00 0.00 56 1012.7
20260905022446 89 126 5.0 6.0 0.00 0.00 0.00 56 1012.5
20260905021941 89 142 4.0 5.0 0.00 0.00 0.00 55 1012.4
20260905021440 89 144 3.0 5.0 0.00 0.00 0.00 55 1012.5
20260905020936 90 131 4.0 5.0 0.00 0.00 0.00 55 1012.5
20260905020435 90 120 2.0 4.0 0.00 0.00 0.00 54 1012.4
20260905015930 90 127 3.0 4.0 0.00 0.00 0.00 54 1012.1
20260905015428 90 134 2.0 6.0 0.00 0.00 0.00 53 1012.0
20260905014927 90 141 4.0 4.0 0.00 0.00 0.00 53 1012.0
20260905014423 90 152 4.0 5.0 0.00 0.00 0.00 53 1012.1
20260905013918 91 143 3.0 5.0 0.00 0.00 0.00 53 1012.1
20260905013415 91 91 2.0 3.0 0.00 0.00 0.00 53 1011.8
20260905012910 91 143 4.0 4.0 0.00 0.00 0.00 53 1011.9
20260905012405 91 146 3.0 6.0 0.00 0.00 0.00 53 1011.9
20260905011902 91 140 5.0 5.0 0.00 0.00 0.00 52 1011.7